When you browse on this site, cookies collect data to enhance your experience and personalize the content and advertising you see.
Visit our Privacy Policy to learn more. By continuing to use the site, you agree to this use of cookies and data.
  • In Slovakia
  • List of Countries
  • For 7 days
  • Water Temperature
  • Satellite Maps
  • Weather Map
  • Weather Widgets
  • user-avatar
    Login

    Hourly Weather Yeghegnadzor

    Today, 23 March, Saturday

    Time Temperature Precipitation Wind Pressure Humidity
    00:00 +1°C° 0 mm 1 mps 652 mmHg 60%
    01:00 +1°C° 0 mm 1 mps 652 mmHg 60%
    02:00 +1°C° 0 mm 1 mps 652 mmHg 61%
    03:00 +1°C° 0 mm 1 mps 651 mmHg 61%
    04:00 -2°C° 0 mm 2 mps 651 mmHg 62%
    05:00 -2°C° 0 mm 2 mps 651 mmHg 62%
    06:00 -2°C° 0 mm 2 mps 651 mmHg 63%
    07:00 -1°C° 0 mm 2 mps 651 mmHg 63%
    08:00 +2°C° 0 mm 2 mps 651 mmHg 62%
    09:00 +4°C° 0 mm 2 mps 651 mmHg 62%
    10:00 +4°C° 0 mm 2 mps 651 mmHg 61%
    11:00 +5°C° 0 mm 2 mps 650 mmHg 61%
    12:00 +5°C° 0 mm 3 mps 650 mmHg 60%
    13:00 +5°C° 0 mm 3 mps 649 mmHg 59%
    14:00 +7°C° 0 mm 3 mps 649 mmHg 58%
    15:00 +7°C° 0 mm 2 mps 648 mmHg 57%
    16:00 +7°C° 0 mm 2 mps 648 mmHg 60%
    17:00 +6°C° 0 mm 2 mps 648 mmHg 62%
    18:00 +5°C° 0 mm 2 mps 648 mmHg 65%
    19:00 +4°C° 0 mm 2 mps 648 mmHg 65%
    20:00 +4°C° 0 mm 2 mps 648 mmHg 66%
    21:00 +2°C° 0 mm 3 mps 648 mmHg 66%
    22:00 +2°C° 0 mm 3 mps 647 mmHg 66%
    23:00 +3°C° 0 mm 2 mps 647 mmHg 66%

    Tomorrow, 24 March, Sunday

    Time Temperature Precipitation Wind Pressure Humidity
    00:00 +3°C° 0 mm 2 mps 647 mmHg 66%
    01:00 +3°C° 0.2 mm 2 mps 647 mmHg 68%
    02:00 +3°C° 0.2 mm 2 mps 646 mmHg 69%
    03:00 +3°C° 0.2 mm 2 mps 646 mmHg 71%
    04:00 +3°C° 0.1 mm 2 mps 646 mmHg 73%
    05:00 +3°C° 0.1 mm 2 mps 646 mmHg 74%
    06:00 +3°C° 0.1 mm 2 mps 646 mmHg 75%
    07:00 +3°C° 0 mm 3 mps 646 mmHg 71%
    08:00 +5°C° 0 mm 3 mps 646 mmHg 67%
    09:00 +7°C° 0 mm 3 mps 646 mmHg 63%
    10:00 +7°C° 0 mm 4 mps 646 mmHg 61%
    11:00 +8°C° 0 mm 4 mps 645 mmHg 58%
    12:00 +10°C° 0 mm 4 mps 645 mmHg 55%
    13:00 +10°C° 0.1 mm 4 mps 645 mmHg 55%
    14:00 +10°C° 0.1 mm 4 mps 644 mmHg 55%
    15:00 +10°C° 0.1 mm 4 mps 644 mmHg 55%
    16:00 +10°C° 0.3 mm 4 mps 644 mmHg 59%
    17:00 +9°C° 0.3 mm 3 mps 644 mmHg 64%
    18:00 +8°C° 0.3 mm 2 mps 644 mmHg 68%
    19:00 +7°C° 1.3 mm 2 mps 645 mmHg 73%
    20:00 +6°C° 1.3 mm 2 mps 645 mmHg 77%
    21:00 +6°C° 1.3 mm 2 mps 646 mmHg 81%
    22:00 +5°C° 0.9 mm 2 mps 646 mmHg 81%
    23:00 +5°C° 0.9 mm 2 mps 646 mmHg 81%

    Day after tomorrow, 25 March, Monday

    Time Temperature Precipitation Wind Pressure Humidity
    00:00 +5°C° 0.9 mm 2 mps 646 mmHg 80%
    01:00 +5°C° 0.3 mm 2 mps 646 mmHg 80%
    02:00 +5°C° 0.3 mm 2 mps 646 mmHg 79%
    03:00 +4°C° 0.3 mm 2 mps 646 mmHg 79%
    04:00 +4°C° 0 mm 2 mps 646 mmHg 78%
    05:00 +3°C° 0 mm 2 mps 646 mmHg 77%
    06:00 +3°C° 0 mm 2 mps 646 mmHg 76%
    07:00 +4°C° 0 mm 2 mps 646 mmHg 74%
    08:00 +6°C° 0 mm 2 mps 647 mmHg 71%
    09:00 +8°C° 0 mm 1 mps 647 mmHg 68%
    10:00 +9°C° 0 mm 1 mps 647 mmHg 67%
    11:00 +9°C° 0 mm 1 mps 647 mmHg 66%
    12:00 +9°C° 0 mm 2 mps 646 mmHg 65%
    13:00 +9°C° 0 mm 2 mps 646 mmHg 64%
    14:00 +10°C° 0 mm 2 mps 646 mmHg 64%
    15:00 +10°C° 0 mm 2 mps 645 mmHg 63%
    16:00 +9°C° 0.1 mm 2 mps 645 mmHg 64%
    17:00 +8°C° 0.1 mm 2 mps 646 mmHg 66%
    18:00 +8°C° 0.1 mm 2 mps 646 mmHg 67%
    19:00 +7°C° 0.1 mm 2 mps 646 mmHg 69%
    20:00 +6°C° 0.1 mm 2 mps 646 mmHg 70%
    21:00 +4°C° 0.1 mm 3 mps 647 mmHg 72%
    22:00 +5°C° 0.1 mm 2 mps 647 mmHg 72%
    23:00 +4°C° 0.1 mm 2 mps 647 mmHg 72%

    26 March, Tuesday

    Time Temperature Precipitation Wind Pressure Humidity
    00:00 +4°C° 0.1 mm 2 mps 647 mmHg 73%
    01:00 +4°C° 0.1 mm 2 mps 647 mmHg 73%
    02:00 +4°C° 0.1 mm 2 mps 647 mmHg 72%
    03:00 +5°C° 0.1 mm 1 mps 647 mmHg 72%
    04:00 +5°C° 0 mm 1 mps 647 mmHg 72%
    05:00 +4°C° 0 mm 1 mps 647 mmHg 72%
    06:00 +4°C° 0 mm 1 mps 647 mmHg 71%
    07:00 +5°C° 0 mm 1 mps 648 mmHg 68%
    08:00 +6°C° 0 mm 1 mps 648 mmHg 64%
    09:00 +8°C° 0 mm 1 mps 649 mmHg 61%
    10:00 +8°C° 0 mm 1 mps 648 mmHg 60%
    11:00 +9°C° 0 mm 1 mps 648 mmHg 58%
    12:00 +10°C° 0 mm 1 mps 648 mmHg 57%
    13:00 +10°C° 0 mm 1 mps 648 mmHg 56%
    14:00 +11°C° 0 mm 1 mps 648 mmHg 56%
    15:00 +11°C° 0 mm 1 mps 647 mmHg 55%
    16:00 +10°C° 0 mm 1 mps 647 mmHg 57%
    17:00 +10°C° 0 mm 1 mps 647 mmHg 59%
    18:00 +8°C° 0 mm 2 mps 647 mmHg 61%
    19:00 +7°C° 0 mm 2 mps 647 mmHg 64%
    20:00 +6°C° 0 mm 2 mps 648 mmHg 67%
    21:00 +6°C° 0 mm 2 mps 648 mmHg 70%
    22:00 +5°C° 0 mm 2 mps 648 mmHg 71%
    23:00 +5°C° 0 mm 2 mps 648 mmHg 71%

    27 March, Wednesday

    Time Temperature Precipitation Wind Pressure Humidity
    00:00 +5°C° 0 mm 1 mps 648 mmHg 72%
    01:00 +5°C° 0 mm 1 mps 648 mmHg 72%
    02:00 +5°C° 0 mm 1 mps 648 mmHg 73%
    03:00 +3°C° 0 mm 0 mps 648 mmHg 74%
    04:00 +3°C° 0 mm 0 mps 648 mmHg 75%
    05:00 +3°C° 0 mm 0 mps 648 mmHg 77%
    06:00 +2°C° 0 mm 0 mps 648 mmHg 78%
    07:00 +5°C° 0 mm 1 mps 649 mmHg 74%
    08:00 +6°C° 0 mm 1 mps 649 mmHg 69%
    09:00 +6°C° 0 mm 2 mps 650 mmHg 64%
    10:00 +7°C° 0 mm 2 mps 650 mmHg 64%
    11:00 +8°C° 0 mm 2 mps 649 mmHg 63%
    12:00 +8°C° 0 mm 2 mps 649 mmHg 63%
    13:00 +9°C° 0 mm 2 mps 649 mmHg 61%
    14:00 +9°C° 0 mm 2 mps 649 mmHg 60%
    15:00 +10°C° 0 mm 2 mps 649 mmHg 58%
    16:00 +9°C° 0 mm 2 mps 649 mmHg 60%
    17:00 +10°C° 0 mm 1 mps 649 mmHg 61%
    18:00 +9°C° 0 mm 1 mps 649 mmHg 63%
    19:00 +9°C° 0 mm 1 mps 650 mmHg 65%
    20:00 +8°C° 0 mm 1 mps 650 mmHg 68%
    21:00 +7°C° 0 mm 1 mps 650 mmHg 70%
    22:00 +7°C° 0.1 mm 1 mps 650 mmHg 71%
    23:00 +7°C° 0.1 mm 1 mps 650 mmHg 73%

    28 March, Thursday

    Time Temperature Precipitation Wind Pressure Humidity
    00:00 +7°C° 0.1 mm 1 mps 650 mmHg 74%
    01:00 +6°C° 0.1 mm 1 mps 650 mmHg 75%
    02:00 +6°C° 0.1 mm 1 mps 650 mmHg 76%
    03:00 +5°C° 0.1 mm 1 mps 650 mmHg 78%
    04:00 +5°C° 0 mm 1 mps 650 mmHg 78%
    05:00 +5°C° 0 mm 1 mps 650 mmHg 79%
    06:00 +5°C° 0 mm 1 mps 650 mmHg 79%
    07:00 +6°C° 0 mm 1 mps 651 mmHg 75%
    08:00 +7°C° 0 mm 1 mps 651 mmHg 71%
    09:00 +7°C° 0 mm 2 mps 652 mmHg 67%
    10:00 +8°C° 0.1 mm 2 mps 651 mmHg 65%
    11:00 +8°C° 0.1 mm 2 mps 651 mmHg 63%
    12:00 +9°C° 0.1 mm 3 mps 651 mmHg 62%
    13:00 +9°C° 0.1 mm 2 mps 651 mmHg 60%
    14:00 +9°C° 0.1 mm 2 mps 650 mmHg 59%
    15:00 +9°C° 0.1 mm 2 mps 650 mmHg 58%
    16:00 +9°C° 0 mm 2 mps 650 mmHg 59%
    17:00 +9°C° 0 mm 1 mps 650 mmHg 61%
    18:00 +8°C° 0 mm 1 mps 650 mmHg 62%
    19:00 +8°C° 0 mm 1 mps 650 mmHg 63%
    20:00 +7°C° 0 mm 1 mps 650 mmHg 65%
    21:00 +6°C° 0 mm 1 mps 650 mmHg 66%
    22:00 +6°C° 0 mm 1 mps 650 mmHg 66%
    23:00 +6°C° 0 mm 1 mps 650 mmHg 66%
    Show more